METEOSAT 5 (MOP 2)

导读 | 星芒AI

METEOSAT 5(MOP 2)是欧洲气象卫星组织(EUMETSAT)于1981年发射的第二代静止气象卫星,主要用于欧洲、非洲及周边地区的天气监测。该卫星搭载了先进的可见光和红外扫描辐射计(VISSR),能够提供云层覆盖、风暴发展和地表温度等关键气象数据。METEOSAT 5在轨运行期间为气象预报和灾害预警提供了重要支持,提升了中长期天气预测的准确性。

基本信息
目录编号:
21140
目录名称:
METEOSAT 5 (MOP 2)
国际标识:
1991-015B
轨道中心:
EARTH
卫星名称:
METEOSAT 5 (MOP 2)
卫星全名:
--
卫星状态:
在轨 (已飞行12707 天)
发射日期:
1991-03-02 UTC
国别 :
(ESA)
星等 :
--
轨道信息
数据来源 国际轨道数据
星历时间: 2025-12-15T00:53:56+0800
1天前
查看轨道信息
半长轴: 42682.582km
偏心率: 0.0012982
轨道倾角: 14.715°
近地点辐角 261.724°
升交点赤经 351.322°
平近点角 95.567°
近地点: 36249.036km
远地点: 36359.858km
周期: 1462.634分钟
每日圈数: 0.984525
详细信息
使用方式:
暂无
2D轨道图
3D轨道图
轨道高度分析图
轨道倾角分析图
轨道综合分析图
查看轨道综合分析图